Regional Weather Roundup
Issued by NWS

Home | Current Version | Previous Version | Text Only | Print | Product List | Glossary On
Versions: 1 2 3 4 5 6 7 8 9 10 11 12 13 14 15 16 17 18 19 20 21 22 23 24 25 26 27 28 29 30 31 32 33 34 35 36 37 38 39 40 41 42 43 44 45 46 47 48 49 50
000
ASUS43 KLMK 222002
RWRKY
KENTUCKY REGIONAL WEATHER ROUNDUP
NATIONAL WEATHER SERVICE LOUISVILLE KY
400 PM EDT WED OCT 22 2014

NOTE "FAIR" INDICATES FEW OR NO CLOUDS BELOW 12,000 FEET
WITH NO SIGNIFICANT WEATHER AND/OR OBSTRUCTIONS TO VISIBILITY.

KYZ001>023-026-027-061>063-070>075-222100-
WESTERN AND SOUTH CENTRAL KENTUCKY

CITY           SKY/WX    TMP DP  RH WIND       PRES   REMARKS
PADUCAH        SUNNY     64  43  46 NE9       30.22F
HENDERSON      SUNNY    N/A N/A N/A E8        30.24F
OWENSBORO      SUNNY     60  40  47 VRB7      30.25F
HOPKINSVILLE   SUNNY     62  42  47 N10       30.21F
BOWLING GREEN  SUNNY     62  40  44 NE8       30.23F
GLASGOW        SUNNY     62  40  45 N8        30.22F
$$

KYZ024-025-028>034-038-045-046-053-222100-
NORTH CENTRAL KENTUCKY

CITY           SKY/WX    TMP DP  RH WIND       PRES   REMARKS
LOUISVILLE/SDF MOSUNNY   61  41  47 E8        30.25S
LOUISVILLE/LOU SUNNY     60  41  49 NE7       30.25F
FORT KNOX      MOSUNNY   58  42  54 N7        30.23F
$$

KYZ035>037-039>044-047>052-055>060-089>105-222100-
NORTHEAST KENTUCKY

CITY           SKY/WX    TMP DP  RH WIND       PRES   REMARKS
LEXINGTON      CLOUDY    56  42  59 NE8       30.25S
COVINGTON      PTSUNNY   53  39  59 N8        30.27S
FRANKFORT      MOSUNNY   58  39  49 N5        30.24F
$$

KYZ054-064>069-076>088-106>120-222100-
SOUTHEAST KENTUCKY

CITY           SKY/WX    TMP DP  RH WIND       PRES   REMARKS
JACKSON        CLOUDY    49  40  71 CALM      30.23S
LONDON         CLOUDY    49  40  71 NE3       30.25F
SOMERSET       PTSUNNY   50  39  66 E6        30.26S
MIDDLESBORO    CLOUDY    50  41  70 NE7       30.24S
MONTICELLO     CLEAR     59  43  55 N8        30.25R
$$




USA.gov is the U.S. government's official web portal to all federal, state and local government web resources and services.